Regional Weather Roundup
Issued by NWS Northern Indiana

Home | Current Version | Previous Version | Graphics & Text | Print | Product List | Glossary On
Versions: 1 2 3 4 5 6 7 8 9 10 11 12 13 14 15 16 17 18 19 20 21 22 23 24 25 26 27 28 29 30 31 32 33 34 35 36 37 38 39 40 41 42 43 44 45 46 47 48 49 50
000
ASUS43 KIWX 300600
RWRIWX

KIWX WEATHER ROUNDUP
NATIONAL WEATHER SERVICE NORTHERN INDIANA
200 AM EDT THU OCT 30 2014

NOTE: "FAIR" INDICATES FEW OR NO CLOUDS BELOW 12,000 FEET WITH NO
SIGNIFICANT WEATHER AND/OR OBSTRUCTIONS TO VISIBILITY.

* THESE STATIONS ARE NOT UNDER NWS QUALITY CONTROL. THEY ALSO MAY NOT
  REPORT WEATHER SUCH AS PRECIPITATION OR FOG.

INZ001>027-300700-
NORTHERN INDIANA

CITY           SKY/WX    TMP DP  RH WIND       PRES   REMARKS
SOUTH BEND     CLOUDY    44  37  76 SW3       30.13S
6HR MIN TEMP:  44; 6HR MAX TEMP:  46;

GOSHEN         CLOUDY    43  38  82 W3        30.12S
6HR MIN TEMP:  43; 6HR MAX TEMP:  44;

ANGOLA*        CLOUDY    43  37  81 W3        30.11S
FORT WAYNE     CLOUDY    43  36  76 W5        30.14R
6HR MIN TEMP:  43; 6HR MAX TEMP:  45;

PERU/GRISSOM   CLOUDY    43  40  89 W3        30.13S
6HR MIN TEMP:  42; 6HR MAX TEMP:  44;


$$
INZ028>050-300700-
CENTRAL INDIANA

CITY           SKY/WX    TMP DP  RH WIND       PRES   REMARKS
LAFAYETTE      PTCLDY    39  35  86 CALM      30.15S
6HR MIN TEMP:  38; 6HR MAX TEMP:  44;

KOKOMO*        CLOUDY    43  34  70 W6        30.14F
6HR MIN TEMP:  43; 6HR MAX TEMP:  45;

MUNCIE*        CLOUDY    43  35  73 NW5       30.13S
6HR MIN TEMP:  43; 6HR MAX TEMP:  45;

INDIANAPOLIS   PTCLDY    42  31  64 CALM      30.13F
6HR MIN TEMP:  41; 6HR MAX TEMP:  46;


$$
MIZ043>046-050>051-056>058-064>065-071>073-077>080-300700-
SOUTHWEST LOWER MICHIGAN

CITY           SKY/WX    TMP DP  RH WIND       PRES   REMARKS
BATTLE CREEK   CLOUDY    43  36  76 CALM      30.11S
6HR MIN TEMP:  41; 6HR MAX TEMP:  44;

BENTON HARBOR  CLOUDY    47  34  60 W5        30.12R
6HR MIN TEMP:  46; 6HR MAX TEMP:  47;

COLDWATER*     CLOUDY    42  40  90 CALM      30.11S
6HR MIN TEMP:  42; 6HR MAX TEMP:  44;

HILLSDALE*     CLEAR     36  35  98 CALM      30.10S
6HR MIN TEMP:  35; 6HR MAX TEMP:  42;

HOLLAND        CLOUDY    46  39  76 S3        30.12R
6HR MIN TEMP:  45; 6HR MAX TEMP:  49;

GRAND RAPIDS   CLEAR     35  33  92 CALM      30.11R
6HR MIN TEMP:  35; 6HR MAX TEMP:  44;

KALAMAZOO      CLOUDY    43  38  82 CALM      30.11S
6HR MIN TEMP:  43; 6HR MAX TEMP:  45; 6HR PCP: TRACE;

STURGIS*       CLOUDY    43  39  87 CALM      30.11S
THREE RIVERS*  CLOUDY    44  41  89 CALM      30.12S

$$
OHZ001>008-015>018-024>025-300700-
NORTHWEST OHIO

CITY           SKY/WX    TMP DP  RH WIND       PRES   REMARKS
DEFIANCE       CLOUDY    43  38  82 W3        30.12R
6HR MIN TEMP:  42; 6HR MAX TEMP:  44;

FINDLAY        CLOUDY    43  37  79 W7        30.10S
6HR MIN TEMP:  43; 6HR MAX TEMP:  47; 6HR PCP: TRACE;

TOLEDO EXPRESS CLOUDY    43  38  82 W7        30.10S
6HR MIN TEMP:  41; 6HR MAX TEMP:  44; 6HR PCP: TRACE;

TOLEDO METCALF CLOUDY    42  38  85 W6        30.10F
6HR MIN TEMP:  39; 6HR MAX TEMP:  45;

LIMA           CLOUDY    44  36  73 W6        30.11S
6HR MIN TEMP:  44; 6HR MAX TEMP:  46;


$$
AND FOR LAKE MICHIGAN COASTAL AND OPEN LAKE BUOY OBSERVATIONS

STATION/POSITION TEMP    WIND        PRES    VSBY  WAVE
                 AIR SEA DIR/SP/G                  HT/PER
                 (F)     (DEG/KT/KT) (MB)    (MI)  (FT/S)
CALUMET HARBOR    42     230/  3/  5 1019.2R
MICHIGAN CITY     47     170/  5/  7   N/A
SAINT JOSEPH      49     280/  9/ 11 1020.0F
SOUTH LAKE BUOY   47 53  280/  4/  6 1020.2F         2/ 5

$$
&&



USA.gov is the U.S. government's official web portal to all federal, state and local government web resources and services.